Fond du Lac, WI

6:48 AM CST on January 24, 2018 (GMT -0600)
Fond du Lac County

Weather History for KFLD - October, 2013

Change the Weather History Date:

Tuesday, October 29, 2013

  Actual Average Record
Temperature  
Mean Temperature 42 °F -  
Max Temperature 48 °F 52 °F 74 °F (1950)
Min Temperature 35 °F 34 °F 15 °F (1952)
Degree Days  
Heating Degree Days 24    
Moisture  
Dew Point 34 °F    
Average Humidity 72    
Maximum Humidity 89    
Minimum Humidity 59    
Precipitation  
Precipitation 0.00 in - - ()
Sea Level Pressure  
Sea Level Pressure 30.31 in    
Wind  
Wind Speed 7 mph (East)    
Max Wind Speed 13 mph    
Max Gust Speed -    
Visibility 10 miles    
Events      
Averages and records for this station are not official NWS values.
T = Trace of Precipitation, MM = Missing Value Source: NWS Daily Summary

Daily Weather History Graph

Daily Weather History Graph

Search for Another Location

Airport or City:

Trip Planner

Search our weather history database for the weather conditions in past years. The results will help you decide how hot, cold, wet, or windy it might be!

Date:

Astronomy

Oct. 29, 2013 Rise Set
Actual Time 7:26 AM CDT 5:48 PM CDT
Civil Twilight 6:56 AM CDT 6:18 PM CDT
Nautical Twilight 6:22 AM CDT 6:51 PM CDT
Astronomical Twilight 5:49 AM CDT 7:25 PM CDT
Moon 2:06 AM CDT (10/29) 3:10 PM CDT (10/29)
Length of Visible Light 11h 21m
Length of Day
10h 21m
Waning Crescent, 25% of the Moon is Illuminated
Oct 29
Waning Crescent
Nov 3
New
Nov 9
First Quarter
Nov 17
Full
Nov 25
Last Quarter

Hourly Weather History & Observations

Time (CDT) Temp. Windchill Dew Point Humidity Pressure Visibility Wind Dir Wind Speed Gust Speed Precip Events Conditions
12:53 AM 36.0 °F 30.3 °F 23.0 °F 59% 30.45 in 10.0 mi NE 6.9 mph - N/A   Overcast
1:53 AM 35.1 °F 28.6 °F 23.0 °F 61% 30.44 in 10.0 mi NE 8.1 mph - N/A   Overcast
2:53 AM 35.1 °F 30.1 °F 25.0 °F 67% 30.44 in 10.0 mi NE 5.8 mph - N/A   Overcast
3:53 AM 35.1 °F 31.0 °F 26.1 °F 70% 30.44 in 10.0 mi NE 4.6 mph - N/A   Overcast
4:53 AM 35.1 °F 31.0 °F 27.0 °F 72% 30.42 in 10.0 mi NE 4.6 mph - N/A   Overcast
5:53 AM 35.1 °F 31.0 °F 28.0 °F 76% 30.43 in 10.0 mi NNE 4.6 mph - N/A   Overcast
6:53 AM 36.0 °F 33.3 °F 28.0 °F 73% 30.42 in 10.0 mi ENE 3.5 mph - N/A   Overcast
7:53 AM 37.0 °F 32.4 °F 28.0 °F 70% 30.41 in 10.0 mi ENE 5.8 mph - N/A   Overcast
8:53 AM 37.9 °F - 28.9 °F 70% 30.40 in 10.0 mi Calm Calm - N/A   Overcast
9:17 AM 37.4 °F 33.8 °F 30.2 °F 75% 30.37 in 10.0 mi NE 4.6 mph - N/A   Overcast
9:53 AM 39.9 °F 37.8 °F 32.0 °F 73% 30.40 in 10.0 mi ENE 3.5 mph - N/A   Overcast
10:53 AM 42.1 °F 39.2 °F 34.0 °F 73% 30.38 in 10.0 mi NE 4.6 mph - 0.00 in   Overcast
11:53 AM 46.0 °F 40.2 °F 36.0 °F 68% 30.35 in 10.0 mi ESE 12.7 mph - N/A   Scattered Clouds
12:02 PM 46.4 °F 41.1 °F 35.6 °F 66% 30.32 in 10.0 mi SE 11.5 mph - N/A   Mostly Cloudy
12:53 PM 46.9 °F - 37.0 °F 68% 30.32 in 10.0 mi SE 8.1 mph - N/A   Overcast
1:53 PM 48.9 °F - 37.9 °F 66% 30.30 in 10.0 mi ESE 8.1 mph - N/A   Overcast
2:53 PM 48.9 °F - 37.9 °F 66% 30.27 in 10.0 mi SSE 9.2 mph - N/A   Mostly Cloudy
3:05 PM 48.2 °F - 37.4 °F 66% 30.25 in 10.0 mi SE 8.1 mph - N/A   Mostly Cloudy
3:53 PM 48.0 °F - 37.9 °F 68% 30.25 in 10.0 mi ESE 9.2 mph - N/A   Scattered Clouds
4:22 PM 48.2 °F - 37.4 °F 66% 30.23 in 10.0 mi East 9.2 mph - N/A   Mostly Cloudy
4:34 PM 48.2 °F - 37.4 °F 66% 30.22 in 10.0 mi SE 11.5 mph - N/A   Scattered Clouds
4:53 PM 48.0 °F - 37.9 °F 68% 30.24 in 10.0 mi SE 10.4 mph - N/A   Clear
5:53 PM 46.0 °F 41.4 °F 37.9 °F 73% 30.25 in 10.0 mi ESE 9.2 mph - N/A   Mostly Cloudy
6:16 PM 44.6 °F 40.7 °F 37.4 °F 76% 30.22 in 10.0 mi ESE 6.9 mph - N/A   Overcast
6:35 PM 44.6 °F 40.7 °F 39.2 °F 81% 30.21 in 10.0 mi ESE 6.9 mph - N/A   Overcast
6:53 PM 45.0 °F 40.6 °F 39.0 °F 80% 30.23 in 10.0 mi ESE 8.1 mph - N/A   Overcast
7:53 PM 44.1 °F 40.1 °F 37.9 °F 79% 30.22 in 10.0 mi ESE 6.9 mph - N/A   Mostly Cloudy
8:33 PM 42.8 °F 37.5 °F 37.4 °F 81% 30.19 in 10.0 mi SE 9.2 mph - N/A   Scattered Clouds
8:53 PM 42.1 °F 37.1 °F 37.0 °F 82% 30.20 in 10.0 mi SSE 8.1 mph - N/A   Clear
9:53 PM 42.1 °F 39.2 °F 37.0 °F 82% 30.20 in 10.0 mi SE 4.6 mph - N/A   Clear
10:53 PM 42.1 °F 37.1 °F 37.0 °F 82% 30.18 in 10.0 mi SSE 8.1 mph - N/A   Clear
11:53 PM 41.0 °F 36.4 °F 37.9 °F 89% 30.15 in 10.0 mi SSE 6.9 mph - N/A   Clear